GW3084 Weather Reports


Display with metric or nautical units.
time (UTC)temp
F
wind
direction
speed
MPH
gust
MPH
rain 1hr
in
rain 24hr
in
rain mn
in
humidity
%
barometer
mb
20260507021051 45 302 1.0 7.0 0.00 0.00 0.00 51 1014.0
20260507020048 45 298 1.0 8.0 0.00 0.00 0.00 50 1013.9
20260507015024 46 299 2.0 8.0 0.00 0.00 0.00 49 1013.8
20260507014041 46 302 2.0 4.0 0.00 0.00 0.00 49 1013.6
20260507013018 46 296 2.0 4.0 0.00 0.00 0.00 49 1013.5
20260507012035 47 298 2.0 7.0 0.00 0.00 0.00 48 1013.5
20260507011031 47 314 2.0 9.0 0.00 0.00 0.00 47 1013.4
20260507010028 48 305 2.0 7.0 0.00 0.00 0.00 46 1013.3
20260507005024 48 308 2.0 8.0 0.00 0.00 0.00 45 1013.1
20260507004021 49 307 3.0 9.0 0.00 0.00 0.00 45 1013.0
20260507003018 49 292 2.0 8.0 0.00 0.00 0.00 44 1012.9
20260507002035 50 292 3.0 9.0 0.00 0.00 0.00 44 1012.9
20260507001229 50 318 3.0 8.0 0.00 0.00 0.00 44 1012.8
20260507000019 49 311 3.0 11.0 0.00 0.00 0.00 47 1012.8
20260506235016 46 293 2.0 13.0 0.00 0.00 0.00 64 1012.7
20260506234033 45 139 1.0 3.0 0.00 0.00 0.00 76 1012.8
20260506233029 44 132 1.0 3.0 0.00 0.00 0.00 77 1012.8
20260506232027 44 138 1.0 4.0 0.00 0.00 0.00 77 1012.8
20260506231042 44 136 2.0 4.0 0.00 0.00 0.00 76 1012.8
20260506230019 44 132 2.0 6.0 0.00 0.00 0.00 75 1012.8
20260506225015 44 145 2.0 4.0 0.00 0.00 0.00 76 1012.8
20260506224032 43 141 2.0 6.0 0.00 0.00 0.00 77 1012.8
20260506223030 43 127 3.0 7.0 0.00 0.00 0.00 79 1012.8
20260506222026 43 125 2.0 6.0 0.00 0.00 0.00 78 1012.8
20260506221022 43 121 2.0 6.0 0.00 0.00 0.00 79 1012.8
20260506220019 43 124 3.0 6.0 0.00 0.00 0.00 79 1012.8
20260506215017 44 124 2.0 7.0 0.00 0.00 0.00 79 1012.8
20260506214032 44 119 3.0 7.0 0.00 0.00 0.00 77 1012.8
20260506213029 45 113 2.0 7.0 0.00 0.00 0.00 77 1012.8
20260506212026 44 130 2.0 7.0 0.00 0.00 0.00 77 1012.8
20260506211022 44 110 3.0 7.0 0.00 0.00 0.00 78 1012.9
20260506210019 44 106 3.0 8.0 0.00 0.00 0.00 78 1012.9
20260506205016 43 115 3.0 7.0 0.00 0.00 0.00 78 1013.1
20260506204033 44 125 3.0 8.0 0.00 0.00 0.00 77 1013.1
20260506203029 44 112 3.0 9.0 0.00 0.00 0.00 76 1013.1
20260506202026 45 114 3.0 8.0 0.00 0.00 0.00 74 1013.2
20260506201024 46 110 3.0 8.0 0.00 0.00 0.00 73 1013.4
20260506200021 46 111 3.0 8.0 0.00 0.00 0.00 73 1013.2
20260506195016 47 112 3.0 10.0 0.00 0.00 0.00 71 1013.1
20260506194033 46 120 2.0 7.0 0.00 0.00 0.00 72 1013.2
20260506193030 45 112 3.0 7.0 0.00 0.00 0.00 72 1013.2
20260506192026 46 112 3.0 8.0 0.00 0.00 0.00 71 1013.3
20260506191024 46 112 4.0 8.0 0.00 0.00 0.00 71 1013.2
20260506190019 47 98 4.0 9.0 0.00 0.00 0.00 68 1013.3
20260506185016 49 114 3.0 9.0 0.00 0.00 0.00 66 1013.4
20260506184033 49 104 3.0 8.0 0.00 0.00 0.00 65 1013.3
20260506183031 49 115 1.0 6.0 0.00 0.00 0.00 66 1013.3
20260506182026 48 106 3.0 9.0 0.00 0.00 0.00 65 1013.3
20260506181023 49 117 2.0 7.0 0.00 0.00 0.00 65 1013.4
20260506180040 49 108 3.0 8.0 0.00 0.00 0.00 66 1013.3
20260506175036 48 120 2.0 8.0 0.00 0.00 0.00 67 1013.5
20260506174033 46 114 2.0 7.0 0.00 0.00 0.00 70 1013.5
20260506173030 46 89 2.0 6.0 0.00 0.00 0.00 71 1013.5
20260506172028 46 114 3.0 9.0 0.00 0.00 0.00 70 1013.7
20260506171044 46 105 3.0 7.0 0.00 0.00 0.00 71 1013.8
20260506170020 44 107 2.0 8.0 0.00 0.00 0.00 74 1013.5
20260506165016 45 115 2.0 6.0 0.00 0.00 0.00 72 1013.6
20260506164053 47 91 2.0 6.0 0.00 0.00 0.00 69 1013.7
20260506162026 46 131 3.0 9.0 0.00 0.00 0.00 71 1013.5
20260506161024 47 122 4.0 8.0 0.00 0.00 0.00 68 1013.5
20260506160021 48 134 3.0 9.0 0.00 0.00 0.00 66 1013.5
20260506155016 49 122 3.0 8.0 0.00 0.00 0.00 64 1013.5
20260506154033 48 144 4.0 9.0 0.00 0.00 0.00 66 1013.5
20260506153030 47 130 5.0 10.0 0.00 0.00 0.00 67 1013.5
20260506152026 48 140 4.0 10.0 0.00 0.00 0.00 65 1013.6
20260506151023 48 139 3.0 9.0 0.00 0.00 0.00 64 1013.6
20260506150020 48 134 3.0 9.0 0.00 0.00 0.00 63 1013.7
20260506145017 48 151 3.0 8.0 0.00 0.00 0.00 64 1013.6
20260506144033 47 131 3.0 11.0 0.00 0.00 0.00 67 1013.4
20260506143030 47 119 4.0 9.0 0.00 0.00 0.00 67 1013.4
20260506142027 47 124 3.0 9.0 0.00 0.00 0.00 68 1013.4
20260506141024 47 123 3.0 8.0 0.00 0.00 0.00 70 1013.4
20260506140020 47 116 3.0 10.0 0.00 0.00 0.00 70 1013.4
20260506135018 46 113 3.0 8.0 0.00 0.00 0.00 72 1013.3
20260506134033 45 102 4.0 9.0 0.00 0.00 0.00 74 1013.4
20260506133030 44 112 3.0 7.0 0.00 0.00 0.00 74 1013.4
20260506132027 46 101 2.0 7.0 0.00 0.00 0.00 70 1013.2
20260506131023 46 95 1.0 4.0 0.00 0.00 0.00 71 1013.1
20260506130020 46 101 1.0 4.0 0.00 0.00 0.00 70 1013.0
20260506125038 45 108 1.0 6.0 0.00 0.00 0.00 72 1012.8
20260506124033 45 64 1.0 4.0 0.00 0.00 0.00 74 1012.8
20260506123030 44 108 1.0 6.0 0.00 0.00 0.00 76 1012.7
20260506122026 42 8 1.0 6.0 0.00 0.00 0.00 82 1012.8
20260506121024 40 2 1.0 4.0 0.00 0.00 0.00 87 1012.8
20260506120019 38 359 1.0 4.0 0.00 0.00 0.00 87 1012.8
20260506115016 37 332 1.0 3.0 0.00 0.00 0.00 87 1012.7
20260506114054 36 328 1.0 3.0 0.00 0.00 0.00 89 1012.7
20260506113029 35 333 0.0 1.0 0.00 0.00 0.00 89 1012.4
20260506112026 34 0.0 0.0 0.00 0.00 0.00 88 1012.4
20260506111023 34 0.0 0.0 0.00 0.00 0.00 88 1012.4
20260506110020 34 286 0.0 1.0 0.00 0.00 0.00 88 1012.2
20260506105036 34 279 0.0 1.0 0.00 0.00 0.00 88 1012.1
20260506104033 34 285 0.0 1.0 0.00 0.00 0.00 88 1012.0
20260506103029 34 334 0.0 1.0 0.00 0.00 0.00 88 1011.8
20260506102025 34 0.0 0.0 0.00 0.00 0.00 87 1011.7
20260506101023 35 318 0.0 1.0 0.00 0.00 0.00 88 1011.8
20260506100020 35 0.0 0.0 0.00 0.00 0.00 88 1011.8
20260506095015 35 0.0 0.0 0.00 0.00 0.00 87 1011.7
20260506094032 35 295 0.0 1.0 0.00 0.00 0.00 86 1011.8
20260506093028 35 0.0 0.0 0.00 0.00 0.00 85 1011.8
20260506092025 35 0.0 0.0 0.00 0.00 0.00 85 1011.7
20260506091102 35 0.0 0.0 0.00 0.00 0.00 84 1011.6
20260506090018 36 0.0 0.0 0.00 0.00 0.00 84 1011.7
20260506085036 36 336 0.0 1.0 0.00 0.00 0.00 82 1011.5
20260506084032 36 24 0.0 1.0 0.00 0.00 0.00 81 1011.4
20260506083028 36 0.0 0.0 0.00 0.00 0.00 79 1011.5
20260506082026 37 0.0 0.0 0.00 0.00 0.00 79 1011.4
20260506081042 38 88 0.0 1.0 0.00 0.00 0.00 80 1011.3
20260506073028 39 50 0.0 3.0 0.00 0.00 0.00 71 1011.2
20260506072026 40 28 1.0 4.0 0.00 0.00 0.00 69 1011.3
20260506071021 39 16 1.0 6.0 0.00 0.00 0.00 59 1011.3
20260506062024 39 0.0 0.0 0.00 0.00 0.00 54 1011.0
20260506061022 40 281 0.0 1.0 0.00 0.00 0.00 54 1011.1
20260506051020 42 299 0.0 1.0 0.00 0.00 0.00 49 1011.1
20260506045033 43 317 1.0 2.0 0.00 0.00 0.00 48 1011.1
20260506044030 43 312 1.0 2.0 0.00 0.00 0.00 47 1011.0
20260506043027 44 318 1.0 3.0 0.00 0.00 0.00 46 1010.9
20260506042024 44 322 1.0 4.0 0.00 0.00 0.00 46 1010.9
20260506041020 44 313 1.0 3.0 0.00 0.00 0.00 46 1010.8
20260506040017 45 319 1.0 4.0 0.00 0.00 0.00 45 1010.9
20260506035034 45 320 2.0 4.0 0.00 0.00 0.00 44 1010.8
20260506034030 45 319 1.0 6.0 0.00 0.00 0.00 44 1011.0
20260506033027 45 320 2.0 6.0 0.00 0.00 0.00 43 1011.1
20260506032044 46 327 1.0 4.0 0.00 0.00 0.00 43 1010.9
20260506031021 46 327 2.0 8.0 0.00 0.00 0.00 43 1011.0
20260506030017 46 323 1.0 4.0 0.00 0.00 0.00 42 1010.7
20260506025034 46 333 2.0 7.0 0.00 0.00 0.00 42 1010.7
20260506024031 47 332 3.0 10.0 0.00 0.00 0.00 41 1010.6
20260506023047 47 328 3.0 10.0 0.00 0.00 0.00 41 1010.5
20260506022024 47 332 3.0 8.0 0.00 0.00 0.00 41 1010.4